Preview of NWS' New Version of Forecast
This preview is not operational and should not be used for support decisions.

Regional Weather Roundup (RWR)

Issued by National Weather Service (NWS)

                            
000
ASUS43 KTOP 211859
RWRKS 

WEATHER ROUNDUP FOR KANSAS
NATIONAL WEATHER SERVICE GOODLAND KS
200 PM CDT WED AUG 21 2019

NOTE:  "FAIR" INDICATES FEW OR NO CLOUDS BELOW 12,000 FEET WITH NO
SIGNIFICANT WEATHER AND/OR OBSTRUCTIONS TO VISIBILITY.

KSZ001>006-013>018-027>032-041>047-212000-
NORTHWEST KANSAS
  
CITY           SKY/WX    TMP DP  RH WIND       PRES   REMARKS
GOODLAND         N/A     82  65  56 MISG      30.10F                  
HAYS           SUNNY     82  69  64 S15       29.86S                  
HILL CITY      SUNNY     81  68  64 VRB7      30.03F                  
RUSSELL        SUNNY     79  68  69 S16       29.97S                  
$$

KSZ061>065-074>080-084>089-212000-
SOUTHWEST KANSAS
  
CITY           SKY/WX    TMP DP  RH WIND       PRES   REMARKS
DODGE CITY     SUNNY     89  64  43 SE22G32   30.02F                  
GARDEN CITY    SUNNY     90  64  42 SE21G31   30.00F                  
GREAT BEND     SUNNY     81  66  60 SE17G23   29.99F                  
LIBERAL        SUNNY     99  56  23 SW16G22   30.00F HX  97           
$$

KSZ066>073-081>083-090>101-212000-
SOUTHEAST KANSAS
  
CITY           SKY/WX    TMP DP  RH WIND       PRES   REMARKS
CHANUTE        MOSUNNY   92  74  55 S8        30.02F HX 101           
COFFEYVILLE    SUNNY     91  76  61 S6        30.01F HX 103           
HUTCHINSON     SUNNY     82  69  64 SE16      29.98F                  
MEDICINE LODGE   N/A     87  69  54 E14G23    29.99F                  
NEWTON         SUNNY     79  72  79 E10       30.02F                  
PARSONS        SUNNY     89  78  70 SE5       30.03F HX 103           
WICHITA INTL   PTSUNNY   90  70  51 NE14      30.01F HX  95           
WICHITA JABRA  SUNNY     86  73  65 NE9       30.02F                  
WINFIELD       MOSUNNY   92  71  50 NE10      30.02F HX  98           
$$

KSZ007>012-019>026-033>040-048>060-102>105-212000-
NORTHEAST KANSAS
  
CITY           SKY/WX    TMP DP  RH WIND       PRES   REMARKS
CONCORDIA      MOSUNNY   77  71  82 E12       30.00F                  
EMPORIA        MOSUNNY   84  73  69 N6        30.03F                  
LAWRENCE       MOSUNNY   81  70  69 N7        30.06F                  
MANHATTAN      SUNNY     79  69  71 E12       29.98F                  
OLATHE IND     PTSUNNY   80  72  76 NW12      30.07R                  
OLATHE EXE     MOSUNNY   82  70  66 NE5       30.05R                  
SALINA         TSTM      74  68  81 S10       29.96F                  
TOPEKA BILLARD MOSUNNY   80  68  66 E6        30.02F                  
TOPEKA FORBES  MOSUNNY   82  69  64 E6        30.03F                  
$$